When you browse on this site, cookies collect data to enhance your experience and personalize the content and advertising you see.
Visit our Privacy Policy to learn more. By continuing to use the site, you agree to this use of cookies and data.
  • In Germany
  • List of Countries
  • For 7 days
  • Water Temperature
  • Satellite Maps
  • Weather Map
  • Weather Widgets
  • user-avatar
    Login

    Hourly Weather Rio de Janeiro

    Today, 22 January, Tuesday

    Time Temperature Precipitation Wind Pressure Humidity
    00:00 +32°C° 0 mm 1 mps 758 mmHg 58%
    01:00 +32°C° 0 mm 1 mps 758 mmHg 59%
    02:00 +31°C° 0 mm 1 mps 758 mmHg 60%
    03:00 +31°C° 0 mm 1 mps 758 mmHg 61%
    04:00 +31°C° 0 mm 1 mps 758 mmHg 61%
    05:00 +31°C° 0 mm 1 mps 758 mmHg 62%
    06:00 +30°C° 0 mm 1 mps 758 mmHg 62%
    07:00 +32°C° 0 mm 1 mps 758 mmHg 55%
    08:00 +34°C° 0 mm 1 mps 758 mmHg 48%
    09:00 +36°C° 0 mm 1 mps 759 mmHg 41%
    10:00 +39°C° 0 mm 1 mps 759 mmHg 38%
    11:00 +40°C° 0 mm 2 mps 758 mmHg 34%
    12:00 +43°C° 0 mm 3 mps 758 mmHg 31%
    13:00 +42°C° 0 mm 3 mps 758 mmHg 34%
    14:00 +41°C° 0 mm 4 mps 758 mmHg 37%
    15:00 +40°C° 0 mm 4 mps 757 mmHg 39%
    16:00 +38°C° 0 mm 3 mps 758 mmHg 44%
    17:00 +36°C° 0 mm 3 mps 758 mmHg 48%
    18:00 +35°C° 0 mm 2 mps 758 mmHg 53%
    19:00 +33°C° 0 mm 1 mps 758 mmHg 56%
    20:00 +32°C° 0 mm 1 mps 759 mmHg 59%
    21:00 +30°C° 0 mm 0 mps 759 mmHg 62%
    22:00 +29°C° 0 mm 0 mps 759 mmHg 63%
    23:00 +31°C° 0 mm 1 mps 759 mmHg 64%

    Tomorrow, 23 January, Wednesday

    Time Temperature Precipitation Wind Pressure Humidity
    00:00 +31°C° 0 mm 1 mps 759 mmHg 66%
    01:00 +30°C° 0 mm 1 mps 759 mmHg 67%
    02:00 +28°C° 0 mm 0 mps 758 mmHg 68%
    03:00 +28°C° 0 mm 0 mps 758 mmHg 68%
    04:00 +28°C° 0 mm 0 mps 758 mmHg 69%
    05:00 +27°C° 0 mm 0 mps 758 mmHg 69%
    06:00 +27°C° 0 mm 0 mps 758 mmHg 69%
    07:00 +29°C° 0 mm 0 mps 759 mmHg 62%
    08:00 +32°C° 0 mm 0 mps 759 mmHg 54%
    09:00 +34°C° 0 mm 0 mps 760 mmHg 46%
    10:00 +39°C° 0 mm 1 mps 759 mmHg 42%
    11:00 +40°C° 0 mm 2 mps 759 mmHg 37%
    12:00 +42°C° 0 mm 2 mps 759 mmHg 32%
    13:00 +42°C° 0 mm 3 mps 758 mmHg 36%
    14:00 +40°C° 0 mm 4 mps 758 mmHg 39%
    15:00 +38°C° 0 mm 4 mps 757 mmHg 43%
    16:00 +37°C° 0 mm 4 mps 757 mmHg 46%
    17:00 +36°C° 0 mm 4 mps 757 mmHg 49%
    18:00 +35°C° 0 mm 3 mps 757 mmHg 51%
    19:00 +34°C° 0.2 mm 3 mps 758 mmHg 55%
    20:00 +32°C° 0.2 mm 2 mps 758 mmHg 60%
    21:00 +31°C° 0.2 mm 1 mps 759 mmHg 64%
    22:00 +31°C° 0 mm 1 mps 759 mmHg 65%
    23:00 +30°C° 0 mm 1 mps 759 mmHg 66%

    Day after tomorrow, 24 January, Thursday

    Time Temperature Precipitation Wind Pressure Humidity
    00:00 +30°C° 0 mm 1 mps 759 mmHg 67%
    01:00 +30°C° 0 mm 1 mps 758 mmHg 68%
    02:00 +29°C° 0 mm 1 mps 758 mmHg 68%
    03:00 +29°C° 0 mm 1 mps 757 mmHg 69%
    04:00 +29°C° 0 mm 1 mps 757 mmHg 67%
    05:00 +29°C° 0 mm 1 mps 757 mmHg 66%
    06:00 +29°C° 0 mm 1 mps 758 mmHg 65%
    07:00 +31°C° 0 mm 1 mps 758 mmHg 58%
    08:00 +33°C° 0 mm 1 mps 759 mmHg 51%
    09:00 +35°C° 0 mm 1 mps 759 mmHg 43%
    10:00 +37°C° 0 mm 1 mps 759 mmHg 38%
    11:00 +40°C° 0 mm 2 mps 759 mmHg 33%
    12:00 +42°C° 0 mm 2 mps 758 mmHg 28%
    13:00 +42°C° 0 mm 3 mps 758 mmHg 31%
    14:00 +41°C° 0 mm 4 mps 757 mmHg 34%
    15:00 +40°C° 0 mm 5 mps 757 mmHg 38%
    16:00 +37°C° 0 mm 4 mps 757 mmHg 42%
    17:00 +36°C° 0 mm 4 mps 757 mmHg 46%
    18:00 +35°C° 0 mm 3 mps 757 mmHg 50%
    19:00 +34°C° 0 mm 2 mps 758 mmHg 54%
    20:00 +32°C° 0 mm 2 mps 758 mmHg 58%
    21:00 +31°C° 0 mm 1 mps 759 mmHg 62%
    22:00 +31°C° 0 mm 1 mps 759 mmHg 63%
    23:00 +30°C° 0 mm 1 mps 759 mmHg 64%

    25 January, Friday

    Time Temperature Precipitation Wind Pressure Humidity
    00:00 +30°C° 0 mm 1 mps 759 mmHg 66%
    01:00 +30°C° 0 mm 1 mps 758 mmHg 67%
    02:00 +29°C° 0 mm 1 mps 758 mmHg 67%
    03:00 +29°C° 0 mm 1 mps 757 mmHg 68%
    04:00 +29°C° 0 mm 1 mps 757 mmHg 68%
    05:00 +29°C° 0 mm 1 mps 758 mmHg 68%
    06:00 +28°C° 0 mm 1 mps 758 mmHg 68%
    07:00 +29°C° 0 mm 0 mps 758 mmHg 60%
    08:00 +31°C° 0 mm 0 mps 758 mmHg 52%
    09:00 +33°C° 0 mm 0 mps 759 mmHg 44%
    10:00 +36°C° 0 mm 1 mps 759 mmHg 41%
    11:00 +38°C° 0 mm 2 mps 759 mmHg 38%
    12:00 +39°C° 0 mm 3 mps 758 mmHg 35%
    13:00 +39°C° 0.4 mm 3 mps 758 mmHg 38%
    14:00 +38°C° 0.4 mm 3 mps 757 mmHg 41%
    15:00 +37°C° 0.4 mm 3 mps 757 mmHg 44%
    16:00 +36°C° 0.3 mm 3 mps 757 mmHg 46%
    17:00 +35°C° 0.3 mm 2 mps 757 mmHg 47%
    18:00 +35°C° 0.3 mm 2 mps 757 mmHg 48%
    19:00 +34°C° 0.2 mm 2 mps 758 mmHg 52%
    20:00 +33°C° 0.2 mm 3 mps 759 mmHg 56%
    21:00 +31°C° 0.2 mm 3 mps 760 mmHg 59%
    22:00 +30°C° 0 mm 3 mps 760 mmHg 60%
    23:00 +30°C° 0 mm 3 mps 760 mmHg 61%

    26 January, Saturday

    Time Temperature Precipitation Wind Pressure Humidity
    00:00 +30°C° 0 mm 3 mps 760 mmHg 62%
    01:00 +29°C° 0 mm 3 mps 759 mmHg 63%
    02:00 +29°C° 0 mm 3 mps 759 mmHg 64%
    03:00 +28°C° 0 mm 2 mps 758 mmHg 65%
    04:00 +28°C° 0 mm 2 mps 759 mmHg 66%
    05:00 +28°C° 0 mm 2 mps 759 mmHg 66%
    06:00 +28°C° 0 mm 2 mps 759 mmHg 67%
    07:00 +30°C° 0 mm 2 mps 760 mmHg 61%
    08:00 +31°C° 0 mm 2 mps 760 mmHg 55%
    09:00 +34°C° 0 mm 2 mps 760 mmHg 49%
    10:00 +35°C° 0 mm 2 mps 760 mmHg 44%
    11:00 +37°C° 0 mm 2 mps 760 mmHg 39%
    12:00 +38°C° 0 mm 3 mps 760 mmHg 34%
    13:00 +38°C° 0.1 mm 3 mps 760 mmHg 38%
    14:00 +37°C° 0.1 mm 4 mps 759 mmHg 41%
    15:00 +36°C° 0.1 mm 5 mps 759 mmHg 44%
    16:00 +35°C° 0.1 mm 5 mps 759 mmHg 45%
    17:00 +35°C° 0.1 mm 6 mps 759 mmHg 46%
    18:00 +34°C° 0.1 mm 6 mps 759 mmHg 48%
    19:00 +33°C° 0 mm 5 mps 760 mmHg 51%
    20:00 +32°C° 0 mm 5 mps 760 mmHg 55%
    21:00 +30°C° 0 mm 5 mps 761 mmHg 59%
    22:00 +30°C° 0 mm 4 mps 761 mmHg 61%
    23:00 +29°C° 0 mm 3 mps 761 mmHg 63%

    27 January, Sunday

    Time Temperature Precipitation Wind Pressure Humidity
    00:00 +29°C° 0 mm 3 mps 761 mmHg 65%
    01:00 +28°C° 0 mm 3 mps 761 mmHg 66%
    02:00 +28°C° 0 mm 2 mps 760 mmHg 67%
    03:00 +28°C° 0 mm 2 mps 760 mmHg 67%
    04:00 +28°C° 0 mm 2 mps 760 mmHg 68%
    05:00 +28°C° 0 mm 2 mps 760 mmHg 68%
    06:00 +28°C° 0 mm 2 mps 761 mmHg 68%
    07:00 +30°C° 0 mm 2 mps 761 mmHg 60%
    08:00 +32°C° 0 mm 2 mps 761 mmHg 52%
    09:00 +35°C° 0 mm 2 mps 761 mmHg 43%
    10:00 +37°C° 0 mm 2 mps 761 mmHg 38%
    11:00 +39°C° 0 mm 3 mps 761 mmHg 33%
    12:00 +42°C° 0 mm 3 mps 761 mmHg 28%
    13:00 +41°C° 0 mm 4 mps 760 mmHg 30%
    14:00 +40°C° 0 mm 4 mps 759 mmHg 33%
    15:00 +39°C° 0 mm 5 mps 759 mmHg 35%
    16:00 +39°C° 0 mm 5 mps 759 mmHg 38%
    17:00 +37°C° 0 mm 5 mps 759 mmHg 40%
    18:00 +36°C° 0 mm 5 mps 759 mmHg 43%
    19:00 +35°C° 0 mm 5 mps 760 mmHg 47%
    20:00 +34°C° 0 mm 5 mps 760 mmHg 51%
    21:00 +32°C° 0 mm 5 mps 761 mmHg 55%
    22:00 +32°C° 0 mm 4 mps 761 mmHg 57%
    23:00 +30°C° 0 mm 4 mps 761 mmHg 59%
    Show more